ICS-EF (45265 NORAD) Tracking and Keplerian Element Data

This shows tracking and keplerian element data for the satellite.

Feedback or suggestion? Click here.




ElementValue
Catalog45265
NameICS-EF
Epoch Orbit556
Epoch Day88.12542032
Epoch Year2020
RAAN29.5295
Inclination51.6436
Eccentricity0.0006304
Argument of Perigee70.2299
Mean Anonmoly289.9369
Mean Motion15.49380329
Decay Rate1.988E-05
L11 45265U 98067RJ 20088.12542032 .00001988 00000-0 43721-4 0 9996
L22 45265 51.6436 29.5295 0006304 70.2299 289.9369 15.49380329 5569

Live tracking and technical data element details for ICS-EF (NORAD 45265). ICS-EF can be tracked NOW for your location showing map with azimuth and elevation plus other details from your city location.

Track the satellite on the map from your city or location and see movement details for azimuth, elevation, latitude, longitude, range, height, and movement on the map or in text.







IsCatalogInMostPopularTable: catalog: 45265, numindb: 6
Update: records affected: 1



GetName: 45265 ICS-EF

Hit Count: updated at: Sun, 29 Mar 2020 11:07:01 GMT